This is the latest recevied weather packets stored in our database for station/object WA1TYB-13. If no packets are shown the sender has not sent any weather packets the latest 10 day(s).
| Time | Temp. | Humidity | Pressure | Rain* | Wind** | Luminosity | Snow |
|---|---|---|---|---|---|---|---|
| 1777775329 | 16.11° C | 38% | 1016.1 hPa | 0 mm | - | 6 W/m² | - |
| 1777775024 | 16.67° C | 35% | 1016 hPa | 0 mm | - | 9 W/m² | - |
| 1777774721 | 17.78° C | 34% | 1016.1 hPa | 0 mm | - | 13 W/m² | - |
| 1777774417 | 17.78° C | 33% | 1016.2 hPa | 0 mm | - | 17 W/m² | - |
| 1777774114 | 18.33° C | 33% | 1016 hPa | 0 mm | - | 22 W/m² | - |
| 1777773813 | 18.33° C | 32% | 1016.2 hPa | 0 mm | - | 26 W/m² | - |
| 1777773508 | 18.33° C | 34% | 1016.1 hPa | 0 mm | - | 32 W/m² | - |
| 1777773206 | 18.89° C | 35% | 1016.2 hPa | 0 mm | - | 35 W/m² | - |
| 1777772901 | 18.89° C | 34% | 1016.2 hPa | 0 mm | - | 39 W/m² | - |
| 1777772599 | 18.89° C | 33% | 1016.1 hPa | 0 mm | - | 42 W/m² | - |
| 1777772296 | 19.44° C | 30% | 1016.1 hPa | 0 mm | - | 41 W/m² | - |
| 1777771994 | 19.44° C | 29% | 1015.9 hPa | 0 mm | - | 43 W/m² | - |
| 1777771691 | 20° C | 28% | 1016.1 hPa | 0 mm | - | 49 W/m² | - |
| 1777771388 | 20.56° C | 27% | 1016.2 hPa | 0 mm | - | 69 W/m² | - |
| 1777771085 | 21.11° C | 25% | 1016.1 hPa | 0 mm | - | 97 W/m² | - |
| 1777770782 | 20.56° C | 25% | 1016 hPa | 0 mm | - | 116 W/m² | - |
| 1777770478 | 20.56° C | 24% | 1016.2 hPa | 0 mm | - | 139 W/m² | - |
| 1777770175 | 20.56° C | 26% | 1016.2 hPa | 0 mm | - | 147 W/m² | - |
| 1777769872 | 20° C | 24% | 1016.5 hPa | 0 mm | - | 156 W/m² | - |
| 1777769569 | 20° C | 25% | 1016.5 hPa | 0 mm | - | 138 W/m² | - |
| 1777769265 | 20° C | 27% | 1016.3 hPa | 0 mm | - | 118 W/m² | - |
| 1777768964 | 20.56° C | 27% | 1016.6 hPa | 0 mm | - | 117 W/m² | - |
| 1777768660 | 20.56° C | 27% | 1016.7 hPa | 0 mm | - | 157 W/m² | - |
| 1777768358 | 20.56° C | 26% | 1016.5 hPa | 0 mm | - | 221 W/m² | - |
| 1777768054 | 20.56° C | 25% | 1016.2 hPa | 0 mm | - | 232 W/m² | - |
* Rain latest hour (hover to see other rain measurements)
** Current wind speed in m/s (hover to see current wind gust speed)